| time (UTC) | temp C | wind direction | speed KPH | gust KPH | rain 1hr cm | rain 24hr cm | rain mn cm | humidity % | barometer mb |
| 20260505190026 | 13 | 360 | 19.3 | 37.0 | 0.00 | 0.00 | 0.00 | 43 | 955.6 |
| 20260505185519 | 12 | 360 | 17.7 | 30.6 | 0.00 | 0.00 | 0.00 | 39 | 955.6 |
| 20260505185013 | 13 | 360 | 16.1 | 24.1 | 0.00 | 0.00 | 0.00 | 39 | 955.5 |
| 20260505184515 | 13 | 360 | 9.7 | 24.1 | 0.00 | 0.00 | 0.00 | 38 | 955.6 |
| 20260505184012 | 12 | 360 | 17.7 | 24.1 | 0.00 | 0.00 | 0.00 | 38 | 955.5 |
| 20260505183510 | 12 | 360 | 16.1 | 27.4 | 0.00 | 0.00 | 0.00 | 40 | 955.4 |
| 20260505183017 | 12 | 360 | 14.5 | 40.2 | 0.00 | 0.00 | 0.00 | 36 | 955.4 |
| 20260505182510 | 12 | 360 | 17.7 | 32.2 | 0.00 | 0.00 | 0.00 | 37 | 955.4 |
| 20260505182010 | 12 | 360 | 22.5 | 32.2 | 0.00 | 0.00 | 0.00 | 36 | 955.4 |
| 20260505181516 | 12 | 360 | 20.9 | 32.2 | 0.00 | 0.00 | 0.00 | 37 | 955.4 |
| 20260505181016 | 12 | 360 | 17.7 | 33.8 | 0.00 | 0.00 | 0.00 | 37 | 955.2 |
| 20260505180510 | 12 | 360 | 19.3 | 33.8 | 0.00 | 0.00 | 0.00 | 36 | 955.1 |
| 20260505180017 | 12 | 360 | 19.3 | 29.0 | 0.00 | 0.00 | 0.00 | 36 | 955.2 |
| 20260505175510 | 12 | 360 | 17.7 | 30.6 | 0.00 | 0.00 | 0.00 | 35 | 955.2 |
| 20260505175009 | 12 | 360 | 12.9 | 30.6 | 0.00 | 0.00 | 0.00 | 36 | 955.1 |
| 20260505174509 | 12 | 360 | 16.1 | 27.4 | 0.00 | 0.00 | 0.00 | 37 | 955.1 |
| 20260505174009 | 11 | 360 | 17.7 | 30.6 | 0.00 | 0.00 | 0.00 | 41 | 955.0 |
| 20260505173512 | 11 | 360 | 17.7 | 29.0 | 0.00 | 0.00 | 0.00 | 37 | 955.0 |
| 20260505173010 | 11 | 360 | 16.1 | 32.2 | 0.00 | 0.00 | 0.00 | 37 | 955.1 |
| 20260505172509 | 11 | 360 | 17.7 | 32.2 | 0.00 | 0.00 | 0.00 | 38 | 955.1 |
| 20260505172016 | 11 | 360 | 17.7 | 32.2 | 0.00 | 0.00 | 0.00 | 41 | 955.0 |
| 20260505171523 | 11 | 360 | 19.3 | 25.7 | 0.00 | 0.00 | 0.00 | 40 | 955.1 |
| 20260505171010 | 11 | 360 | 12.9 | 27.4 | 0.00 | 0.00 | 0.00 | 39 | 955.1 |
| 20260505170514 | 11 | 360 | 17.7 | 29.0 | 0.00 | 0.00 | 0.00 | 43 | 955.3 |
| 20260505170013 | 11 | 360 | 14.5 | 30.6 | 0.00 | 0.00 | 0.00 | 40 | 955.2 |
| 20260505165509 | 11 | 360 | 19.3 | 29.0 | 0.00 | 0.00 | 0.00 | 39 | 955.3 |
| 20260505165007 | 11 | 360 | 16.1 | 35.4 | 0.00 | 0.00 | 0.00 | 37 | 955.3 |
| 20260505164514 | 11 | 360 | 22.5 | 35.4 | 0.00 | 0.00 | 0.00 | 37 | 955.4 |
| 20260505164007 | 11 | 360 | 16.1 | 25.7 | 0.00 | 0.00 | 0.00 | 37 | 955.2 |
| 20260505163507 | 11 | 360 | 12.9 | 27.4 | 0.00 | 0.00 | 0.00 | 38 | 955.1 |
| 20260505163009 | 11 | 360 | 14.5 | 30.6 | 0.00 | 0.00 | 0.00 | 36 | 955.1 |
| 20260505162506 | 11 | 360 | 19.3 | 30.6 | 0.00 | 0.00 | 0.00 | 34 | 955.2 |
| 20260505162006 | 11 | 360 | 16.1 | 29.0 | 0.00 | 0.00 | 0.00 | 35 | 955.1 |
| 20260505161506 | 12 | 360 | 16.1 | 25.7 | 0.00 | 0.00 | 0.00 | 35 | 954.9 |
| 20260505161006 | 11 | 360 | 16.1 | 32.2 | 0.00 | 0.00 | 0.00 | 34 | 955.1 |
| 20260505160508 | 11 | 360 | 20.9 | 32.2 | 0.00 | 0.00 | 0.00 | 37 | 955.1 |
| 20260505153006 | 11 | 360 | 17.7 | 37.0 | 0.00 | 0.00 | 0.00 | 36 | 955.1 |
| 20260505152504 | 11 | 360 | 25.7 | 37.0 | 0.00 | 0.00 | 0.00 | 36 | 955.0 |
| 20260505152006 | 11 | 360 | 19.3 | 25.7 | 0.00 | 0.00 | 0.00 | 39 | 955.1 |
| 20260505151504 | 11 | 360 | 12.9 | 27.4 | 0.00 | 0.00 | 0.00 | 36 | 955.1 |
| 20260505151003 | 11 | 360 | 19.3 | 27.4 | 0.00 | 0.00 | 0.00 | 38 | 955.0 |
| 20260505150504 | 11 | 360 | 11.3 | 33.8 | 0.00 | 0.00 | 0.00 | 36 | 955.1 |
| 20260505140550 | 10 | 360 | 16.1 | 24.1 | 0.00 | 0.00 | 0.00 | 47 | 954.9 |
| 20260505125033 | 8 | 360 | 6.4 | 12.9 | 0.00 | 0.00 | 0.00 | 56 | 955.2 |
| 20260505124535 | 8 | 360 | 9.7 | 12.9 | 0.00 | 0.00 | 0.00 | 54 | 955.2 |
| 20260505124032 | 8 | 360 | 9.7 | 12.9 | 0.00 | 0.00 | 0.00 | 55 | 955.0 |
| 20260505123531 | 8 | 360 | 6.4 | 9.7 | 0.00 | 0.00 | 0.00 | 57 | 955.2 |
| 20260505123046 | 7 | 360 | 4.8 | 8.0 | 0.00 | 0.00 | 0.00 | 59 | 955.1 |
| 20260505122530 | 7 | 360 | 4.8 | 6.4 | 0.00 | 0.00 | 0.00 | 59 | 955.1 |
| 20260505122030 | 7 | 360 | 3.2 | 4.8 | 0.00 | 0.00 | 0.00 | 60 | 955.1 |
| 20260505121535 | 7 | 360 | 3.2 | 8.0 | 0.00 | 0.00 | 0.00 | 60 | 955.3 |
| 20260505121028 | 7 | 360 | 1.6 | 8.0 | 0.00 | 0.00 | 0.00 | 61 | 955.0 |
| 20260505120527 | 7 | 360 | 1.6 | 6.4 | 0.00 | 0.00 | 0.00 | 60 | 955.0 |
| 20260505120038 | 7 | 360 | 3.2 | 6.4 | 0.00 | 0.00 | 0.00 | 58 | 955.3 |
| 20260505115526 | 7 | 360 | 3.2 | 4.8 | 0.00 | 0.00 | 0.00 | 58 | 955.0 |
| 20260505115026 | 7 | 360 | 0.0 | 8.0 | 0.00 | 0.00 | 0.00 | 57 | 954.6 |
| 20260505114536 | 7 | 360 | 3.2 | 8.0 | 0.00 | 0.00 | 0.00 | 56 | 954.4 |
| 20260505114026 | 7 | 360 | 3.2 | 8.0 | 0.00 | 0.00 | 0.00 | 57 | 954.4 |
| 20260505113525 | 7 | 360 | 0.0 | 9.7 | 0.00 | 0.00 | 0.00 | 58 | 954.3 |
| 20260505113024 | 7 | 360 | 3.2 | 9.7 | 0.00 | 0.00 | 0.00 | 56 | 954.8 |
| 20260505112523 | 7 | 360 | 4.8 | 8.0 | 0.00 | 0.00 | 0.00 | 56 | 955.3 |
| 20260505112022 | 7 | 360 | 3.2 | 4.8 | 0.00 | 0.00 | 0.00 | 55 | 954.4 |
| 20260505111521 | 7 | 360 | 1.6 | 3.2 | 0.00 | 0.00 | 0.00 | 54 | 953.9 |
| 20260505111019 | 7 | 360 | 0.0 | 6.4 | 0.00 | 0.00 | 0.00 | 54 | 953.4 |
| 20260505110519 | 7 | 360 | 3.2 | 6.4 | 0.00 | 0.00 | 0.00 | 54 | 953.2 |
| 20260505102014 | 8 | 360 | 4.8 | 9.7 | 0.00 | 0.00 | 0.00 | 52 | 953.7 |
| 20260505101513 | 8 | 360 | 4.8 | 9.7 | 0.00 | 0.00 | 0.00 | 53 | 953.6 |
| 20260505101012 | 8 | 360 | 6.4 | 9.7 | 0.00 | 0.00 | 0.00 | 53 | 953.7 |
| 20260505100512 | 8 | 360 | 3.2 | 8.0 | 0.00 | 0.00 | 0.00 | 53 | 953.2 |
| 20260505100010 | 8 | 360 | 4.8 | 14.5 | 0.00 | 0.00 | 0.00 | 53 | 953.2 |
| 20260505095510 | 8 | 360 | 3.2 | 14.5 | 0.00 | 0.00 | 0.00 | 53 | 952.9 |
| 20260505095012 | 8 | 360 | 4.8 | 9.7 | 0.00 | 0.00 | 0.00 | 53 | 952.8 |
| 20260505094508 | 8 | 360 | 3.2 | 14.5 | 0.00 | 0.00 | 0.00 | 53 | 952.5 |
| 20260505094008 | 8 | 360 | 6.4 | 14.5 | 0.00 | 0.00 | 0.00 | 53 | 952.9 |
| 20260505093511 | 8 | 360 | 8.0 | 14.5 | 0.00 | 0.00 | 0.00 | 52 | 952.9 |
| 20260505093008 | 8 | 360 | 8.0 | 14.5 | 0.00 | 0.00 | 0.00 | 53 | 952.9 |
| 20260505092608 | 8 | 360 | 4.8 | 17.7 | 0.00 | 0.00 | 0.00 | 53 | 952.5 |
| 20260505092008 | 8 | 360 | 8.0 | 16.1 | 0.00 | 0.00 | 0.00 | 52 | 952.2 |
| 20260505091507 | 8 | 360 | 1.6 | 16.1 | 0.00 | 0.00 | 0.00 | 53 | 952.2 |
| 20260505091007 | 8 | 360 | 3.2 | 12.9 | 0.00 | 0.00 | 0.00 | 54 | 952.2 |
| 20260505090506 | 8 | 360 | 3.2 | 8.0 | 0.00 | 0.00 | 0.00 | 55 | 952.6 |
| 20260505090009 | 9 | 360 | 3.2 | 12.9 | 0.00 | 0.00 | 0.00 | 54 | 952.7 |
| 20260505085506 | 9 | 360 | 6.4 | 12.9 | 0.00 | 0.00 | 0.00 | 54 | 952.9 |
| 20260505085007 | 8 | 360 | 4.8 | 12.9 | 0.00 | 0.00 | 0.00 | 55 | 952.9 |
| 20260505084505 | 8 | 360 | 6.4 | 9.7 | 0.00 | 0.00 | 0.00 | 56 | 952.7 |
| 20260505084007 | 8 | 360 | 6.4 | 9.7 | 0.00 | 0.00 | 0.00 | 57 | 952.8 |
| 20260505083505 | 8 | 360 | 3.2 | 9.7 | 0.00 | 0.00 | 0.00 | 58 | 952.4 |
| 20260505083006 | 8 | 360 | 3.2 | 6.4 | 0.00 | 0.00 | 0.00 | 57 | 952.2 |
| 20260505082501 | 8 | 360 | 3.2 | 8.0 | 0.00 | 0.00 | 0.00 | 56 | 951.9 |
| 20260505082100 | 8 | 360 | 3.2 | 8.0 | 0.00 | 0.00 | 0.00 | 55 | 951.6 |
| 20260505081602 | 9 | 360 | 1.6 | 8.0 | 0.00 | 0.00 | 0.00 | 55 | 951.6 |
| 20260505081059 | 9 | 360 | 4.8 | 8.0 | 0.00 | 0.00 | 0.00 | 54 | 951.7 |
| 20260505080557 | 9 | 360 | 3.2 | 9.7 | 0.00 | 0.00 | 0.00 | 54 | 951.5 |
| 20260505080057 | 10 | 360 | 4.8 | 14.5 | 0.00 | 0.00 | 0.00 | 53 | 951.3 |
| 20260505075554 | 10 | 360 | 3.2 | 17.7 | 0.00 | 0.00 | 0.00 | 53 | 950.9 |
| 20260505075054 | 10 | 360 | 6.4 | 17.7 | 0.00 | 0.00 | 0.00 | 53 | 951.2 |
| 20260505074553 | 10 | 360 | 6.4 | 17.7 | 0.00 | 0.00 | 0.00 | 53 | 951.3 |
| 20260505074054 | 10 | 360 | 8.0 | 17.7 | 0.00 | 0.00 | 0.00 | 53 | 951.1 |
| 20260505073551 | 10 | 360 | 6.4 | 17.7 | 0.00 | 0.00 | 0.00 | 53 | 950.8 |
| 20260505073057 | 10 | 360 | 6.4 | 24.1 | 0.00 | 0.00 | 0.00 | 53 | 950.9 |
| 20260505072549 | 10 | 360 | 6.4 | 20.9 | 0.00 | 0.00 | 0.00 | 53 | 951.0 |
| 20260505072048 | 10 | 360 | 11.3 | 19.3 | 0.00 | 0.00 | 0.00 | 53 | 950.9 |
| 20260505071550 | 10 | 360 | 6.4 | 16.1 | 0.00 | 0.00 | 0.00 | 54 | 950.6 |
| 20260505071047 | 10 | 360 | 6.4 | 19.3 | 0.00 | 0.00 | 0.00 | 54 | 950.4 |
| 20260505070549 | 10 | 360 | 4.8 | 14.5 | 0.00 | 0.00 | 0.00 | 54 | 950.4 |
| 20260505070053 | 10 | 360 | 4.8 | 9.7 | 0.00 | 0.00 | 0.00 | 54 | 950.0 |
| 20260505065545 | 10 | 360 | 1.6 | 12.9 | 0.00 | 0.00 | 0.00 | 54 | 950.0 |
| 20260505065046 | 10 | 360 | 4.8 | 12.9 | 0.00 | 0.00 | 0.00 | 54 | 950.1 |
| 20260505064544 | 10 | 360 | 4.8 | 12.9 | 0.00 | 0.00 | 0.00 | 55 | 950.4 |
| 20260505064145 | 11 | 360 | 6.4 | 14.5 | 0.00 | 0.00 | 0.00 | 54 | 950.4 |
| 20260505063542 | 11 | 360 | 6.4 | 14.5 | 0.00 | 0.00 | 0.00 | 53 | 950.2 |
| 20260505063043 | 11 | 360 | 3.2 | 12.9 | 0.00 | 0.00 | 0.00 | 53 | 949.8 |
| 20260505062542 | 11 | 360 | 8.0 | 14.5 | 0.00 | 0.00 | 0.00 | 53 | 950.0 |
| 20260505062041 | 11 | 360 | 8.0 | 16.1 | 0.00 | 0.00 | 0.00 | 53 | 949.9 |
| 20260505061539 | 11 | 360 | 8.0 | 16.1 | 0.00 | 0.00 | 0.00 | 53 | 949.8 |
| 20260505061039 | 11 | 360 | 6.4 | 14.5 | 0.00 | 0.00 | 0.00 | 53 | 949.5 |
| 20260505060537 | 11 | 360 | 8.0 | 16.1 | 0.00 | 0.00 | 0.00 | 53 | 949.6 |
| 20260505060036 | 11 | 360 | 8.0 | 16.1 | 0.00 | 0.00 | 0.00 | 53 | 949.5 |
| 20260505055535 | 11 | 360 | 8.0 | 14.5 | 0.00 | 0.00 | 0.00 | 52 | 949.5 |
| 20260505055036 | 11 | 360 | 4.8 | 20.9 | 0.00 | 0.00 | 0.00 | 52 | 949.2 |
| 20260505054533 | 11 | 360 | 8.0 | 20.9 | 0.00 | 0.00 | 0.00 | 51 | 949.2 |
| 20260505054031 | 12 | 360 | 9.7 | 17.7 | 0.00 | 0.00 | 0.00 | 50 | 949.1 |
| 20260505053531 | 12 | 360 | 11.3 | 17.7 | 0.00 | 0.00 | 0.00 | 51 | 949.1 |
| 20260505053029 | 12 | 360 | 8.0 | 16.1 | 0.00 | 0.00 | 0.00 | 50 | 949.0 |
| 20260505052527 | 12 | 360 | 4.8 | 14.5 | 0.00 | 0.00 | 0.00 | 50 | 949.0 |
| 20260505052029 | 12 | 360 | 4.8 | 12.9 | 0.00 | 0.00 | 0.00 | 50 | 949.0 |
| 20260505051525 | 12 | 360 | 6.4 | 12.9 | 0.00 | 0.00 | 0.00 | 49 | 948.9 |
| 20260505051022 | 12 | 360 | 6.4 | 12.9 | 0.00 | 0.00 | 0.00 | 49 | 948.9 |
| 20260505050521 | 12 | 360 | 6.4 | 16.1 | 0.00 | 0.00 | 0.00 | 49 | 948.8 |
| 20260505041537 | 13 | 360 | 6.4 | 9.7 | 0.00 | 0.00 | 0.00 | 48 | 948.4 |
| 20260505041019 | 13 | 360 | 6.4 | 9.7 | 0.00 | 0.00 | 0.00 | 47 | 948.4 |
| 20260505040520 | 14 | 360 | 4.8 | 12.9 | 0.00 | 0.00 | 0.00 | 46 | 948.4 |
| 20260505040019 | 14 | 360 | 6.4 | 14.5 | 0.00 | 0.00 | 0.00 | 45 | 948.4 |
| 20260505035518 | 15 | 360 | 6.4 | 19.3 | 0.00 | 0.00 | 0.00 | 43 | 948.5 |
| 20260505035018 | 15 | 360 | 11.3 | 19.3 | 0.00 | 0.00 | 0.00 | 42 | 948.4 |
| 20260505034518 | 15 | 360 | 9.7 | 22.5 | 0.00 | 0.00 | 0.00 | 42 | 948.4 |
| 20260505034022 | 15 | 360 | 12.9 | 24.1 | 0.00 | 0.00 | 0.00 | 42 | 948.4 |
| 20260505033519 | 15 | 360 | 12.9 | 24.1 | 0.00 | 0.00 | 0.00 | 41 | 948.3 |
| 20260505033018 | 15 | 360 | 14.5 | 24.1 | 0.00 | 0.00 | 0.00 | 42 | 948.3 |
| 20260505032521 | 15 | 360 | 12.9 | 22.5 | 0.00 | 0.00 | 0.00 | 42 | 948.2 |
| 20260505032016 | 16 | 360 | 11.3 | 22.5 | 0.00 | 0.00 | 0.00 | 43 | 948.3 |
| 20260505031518 | 16 | 360 | 12.9 | 20.9 | 0.00 | 0.00 | 0.00 | 43 | 948.3 |
| 20260505031015 | 16 | 360 | 6.4 | 14.5 | 0.00 | 0.00 | 0.00 | 44 | 948.1 |
| 20260505030515 | 16 | 360 | 8.0 | 16.1 | 0.00 | 0.00 | 0.00 | 43 | 948.0 |
| 20260505030019 | 16 | 360 | 11.3 | 16.1 | 0.00 | 0.00 | 0.00 | 42 | 947.9 |
| 20260505025516 | 16 | 360 | 8.0 | 14.5 | 0.00 | 0.00 | 0.00 | 44 | 947.7 |
| 20260505025015 | 16 | 360 | 8.0 | 14.5 | 0.00 | 0.00 | 0.00 | 44 | 947.7 |
| 20260505024518 | 16 | 360 | 4.8 | 8.0 | 0.00 | 0.00 | 0.00 | 45 | 947.6 |
| 20260505024015 | 16 | 360 | 4.8 | 9.7 | 0.00 | 0.00 | 0.00 | 44 | 947.4 |
| 20260505023515 | 16 | 360 | 6.4 | 14.5 | 0.00 | 0.00 | 0.00 | 43 | 947.3 |
| 20260505023016 | 17 | 360 | 9.7 | 16.1 | 0.00 | 0.00 | 0.00 | 40 | 947.3 |
| 20260505022515 | 17 | 360 | 9.7 | 16.1 | 0.00 | 0.00 | 0.00 | 39 | 947.3 |
| 20260505022016 | 17 | 360 | 8.0 | 16.1 | 0.00 | 0.00 | 0.00 | 39 | 947.4 |
| 20260505021514 | 17 | 360 | 6.4 | 16.1 | 0.00 | 0.00 | 0.00 | 40 | 947.5 |
| 20260505021013 | 17 | 360 | 9.7 | 19.3 | 0.00 | 0.00 | 0.00 | 40 | 947.5 |
| 20260505020513 | 18 | 360 | 11.3 | 20.9 | 0.00 | 0.00 | 0.00 | 39 | 947.6 |
| 20260505020017 | 18 | 360 | 12.9 | 30.6 | 0.00 | 0.00 | 0.00 | 39 | 947.5 |
| 20260505015517 | 18 | 360 | 16.1 | 30.6 | 0.00 | 0.00 | 0.00 | 38 | 947.3 |
| 20260505015013 | 18 | 360 | 14.5 | 32.2 | 0.00 | 0.00 | 0.00 | 38 | 946.7 |
| 20260505014513 | 18 | 360 | 20.9 | 40.2 | 0.00 | 0.00 | 0.00 | 37 | 946.5 |
| 20260505014012 | 19 | 360 | 16.1 | 40.2 | 0.00 | 0.00 | 0.00 | 37 | 946.3 |
| 20260505013514 | 19 | 360 | 17.7 | 30.6 | 0.00 | 0.00 | 0.00 | 38 | 946.2 |
| 20260505013018 | 19 | 294 | 17.7 | 30.6 | 0.00 | 0.00 | 0.00 | 37 | 945.9 |
| 20260505012514 | 20 | 320 | 16.1 | 27.4 | 0.00 | 0.00 | 0.00 | 37 | 945.6 |
| 20260505012014 | 20 | 360 | 17.7 | 41.8 | 0.00 | 0.00 | 0.00 | 37 | 945.4 |
| 20260505011521 | 20 | 318 | 20.9 | 41.8 | 0.00 | 0.00 | 0.00 | 36 | 945.2 |
| 20260505011014 | 20 | 360 | 24.1 | 35.4 | 0.00 | 0.00 | 0.00 | 36 | 944.9 |
| 20260505010511 | 20 | 292 | 22.5 | 32.2 | 0.00 | 0.00 | 0.00 | 37 | 944.6 |
| 20260505010011 | 21 | 275 | 19.3 | 29.0 | 0.00 | 0.00 | 0.00 | 38 | 944.4 |
| 20260505005511 | 21 | 309 | 16.1 | 30.6 | 0.00 | 0.00 | 0.00 | 39 | 944.3 |
| 20260505005013 | 21 | 304 | 16.1 | 33.8 | 0.00 | 0.00 | 0.00 | 39 | 944.0 |
| 20260505004513 | 22 | 319 | 22.5 | 33.8 | 0.00 | 0.00 | 0.00 | 38 | 943.9 |
| 20260505004011 | 22 | 303 | 22.5 | 46.7 | 0.00 | 0.00 | 0.00 | 37 | 943.8 |
| 20260505003512 | 22 | 308 | 22.5 | 46.7 | 0.00 | 0.00 | 0.00 | 39 | 943.8 |
| 20260505003010 | 23 | 269 | 22.5 | 30.6 | 0.00 | 0.00 | 0.00 | 40 | 943.7 |
| 20260505002510 | 23 | 308 | 14.5 | 30.6 | 0.00 | 0.00 | 0.00 | 40 | 943.6 |
| 20260505002010 | 23 | 286 | 14.5 | 32.2 | 0.00 | 0.00 | 0.00 | 40 | 943.5 |
| 20260505001510 | 23 | 306 | 17.7 | 32.2 | 0.00 | 0.00 | 0.00 | 40 | 943.2 |
| 20260505001010 | 23 | 289 | 17.7 | 29.0 | 0.00 | 0.00 | 0.00 | 40 | 943.1 |
| 20260505000508 | 24 | 281 | 17.7 | 29.0 | 0.00 | 0.00 | 0.00 | 39 | 942.9 |
| 20260505000015 | 24 | 302 | 20.9 | 37.0 | 0.00 | 0.00 | 0.00 | 38 | 943.0 |
| 20260504235508 | 25 | 264 | 20.9 | 37.0 | 0.00 | 0.00 | 0.00 | 38 | 943.0 |
| 20260504235009 | 25 | 279 | 12.9 | 29.0 | 0.00 | 0.00 | 0.00 | 37 | 942.9 |
| 20260504234508 | 25 | 283 | 19.3 | 40.2 | 0.00 | 0.00 | 0.00 | 36 | 942.9 |
| 20260504234008 | 25 | 259 | 25.7 | 40.2 | 0.00 | 0.00 | 0.00 | 35 | 942.9 |
| 20260504233508 | 25 | 286 | 24.1 | 38.6 | 0.00 | 0.00 | 0.00 | 36 | 942.9 |
| 20260504233007 | 25 | 303 | 25.7 | 40.2 | 0.00 | 0.00 | 0.00 | 36 | 943.0 |
| 20260504232508 | 25 | 265 | 16.1 | 30.6 | 0.00 | 0.00 | 0.00 | 36 | 942.9 |
| 20260504232007 | 25 | 288 | 16.1 | 24.1 | 0.00 | 0.00 | 0.00 | 35 | 942.9 |
| 20260504231507 | 25 | 281 | 16.1 | 25.7 | 0.00 | 0.00 | 0.00 | 37 | 942.9 |
| 20260504231007 | 25 | 288 | 16.1 | 27.4 | 0.00 | 0.00 | 0.00 | 38 | 942.9 |
| 20260504230506 | 25 | 275 | 16.1 | 33.8 | 0.00 | 0.00 | 0.00 | 37 | 942.9 |
| 20260504230012 | 26 | 252 | 19.3 | 33.8 | 0.00 | 0.00 | 0.00 | 36 | 942.8 |
| 20260504225508 | 26 | 259 | 20.9 | 40.2 | 0.00 | 0.00 | 0.00 | 38 | 942.9 |
| 20260504225004 | 26 | 248 | 17.7 | 40.2 | 0.00 | 0.00 | 0.00 | 36 | 943.0 |
| 20260504224504 | 26 | 252 | 19.3 | 27.4 | 0.00 | 0.00 | 0.00 | 36 | 943.0 |
| 20260504224004 | 26 | 265 | 11.3 | 27.4 | 0.00 | 0.00 | 0.00 | 38 | 943.1 |
| 20260504223503 | 26 | 243 | 12.9 | 29.0 | 0.00 | 0.00 | 0.00 | 36 | 943.0 |
| 20260504223003 | 25 | 229 | 11.3 | 40.2 | 0.00 | 0.00 | 0.00 | 37 | 943.1 |
| 20260504222505 | 25 | 243 | 20.9 | 40.2 | 0.00 | 0.00 | 0.00 | 35 | 943.2 |
| 20260504222007 | 25 | 238 | 19.3 | 38.6 | 0.00 | 0.00 | 0.00 | 35 | 943.2 |
| 20260504221505 | 26 | 257 | 17.7 | 45.1 | 0.00 | 0.00 | 0.00 | 36 | 943.1 |
| 20260504221002 | 26 | 260 | 30.6 | 45.1 | 0.00 | 0.00 | 0.00 | 34 | 943.1 |
| 20260504220502 | 26 | 263 | 20.9 | 40.2 | 0.00 | 0.00 | 0.00 | 35 | 943.2 |
| 20260504220002 | 26 | 253 | 17.7 | 43.5 | 0.00 | 0.00 | 0.00 | 35 | 943.2 |
| 20260504215502 | 26 | 248 | 29.0 | 43.5 | 0.00 | 0.00 | 0.00 | 36 | 943.3 |
| 20260504215004 | 25 | 271 | 19.3 | 37.0 | 0.00 | 0.00 | 0.00 | 38 | 943.3 |
| 20260504214604 | 25 | 249 | 20.9 | 37.0 | 0.00 | 0.00 | 0.00 | 37 | 943.3 |
| 20260504214101 | 25 | 232 | 22.5 | 43.5 | 0.00 | 0.00 | 0.00 | 36 | 943.4 |
| 20260504213600 | 26 | 257 | 27.4 | 40.2 | 0.00 | 0.00 | 0.00 | 35 | 943.4 |
| 20260504213139 | 26 | 250 | 27.4 | 43.5 | 0.00 | 0.00 | 0.00 | 34 | 943.4 |
| 20260504212559 | 26 | 243 | 24.1 | 38.6 | 0.00 | 0.00 | 0.00 | 35 | 943.5 |
| 20260504212057 | 26 | 235 | 20.9 | 38.6 | 0.00 | 0.00 | 0.00 | 34 | 943.5 |
| 20260504211605 | 26 | 239 | 20.9 | 38.6 | 0.00 | 0.00 | 0.00 | 33 | 943.5 |
| 20260504211058 | 26 | 235 | 25.7 | 38.6 | 0.00 | 0.00 | 0.00 | 34 | 943.6 |
| 20260504210557 | 26 | 259 | 25.7 | 38.6 | 0.00 | 0.00 | 0.00 | 35 | 943.7 |
| 20260504210056 | 26 | 243 | 20.9 | 38.6 | 0.00 | 0.00 | 0.00 | 35 | 943.8 |
| 20260504205557 | 26 | 252 | 14.5 | 37.0 | 0.00 | 0.00 | 0.00 | 35 | 943.7 |
| 20260504205054 | 26 | 245 | 17.7 | 38.6 | 0.00 | 0.00 | 0.00 | 33 | 943.8 |
| 20260504204556 | 26 | 259 | 24.1 | 43.5 | 0.00 | 0.00 | 0.00 | 34 | 943.9 |
| 20260504204054 | 26 | 204 | 25.7 | 43.5 | 0.00 | 0.00 | 0.00 | 34 | 944.0 |
| 20260504203557 | 26 | 247 | 27.4 | 41.8 | 0.00 | 0.00 | 0.00 | 36 | 944.1 |
| 20260504203112 | 26 | 253 | 24.1 | 38.6 | 0.00 | 0.00 | 0.00 | 33 | 944.0 |
| 20260504202552 | 26 | 212 | 14.5 | 30.6 | 0.00 | 0.00 | 0.00 | 36 | 944.1 |
| 20260504202050 | 26 | 221 | 16.1 | 33.8 | 0.00 | 0.00 | 0.00 | 33 | 944.2 |
| 20260504201550 | 26 | 239 | 17.7 | 45.1 | 0.00 | 0.00 | 0.00 | 35 | 944.3 |
| 20260504201049 | 26 | 242 | 27.4 | 45.1 | 0.00 | 0.00 | 0.00 | 32 | 944.4 |
| 20260504200549 | 26 | 252 | 25.7 | 35.4 | 0.00 | 0.00 | 0.00 | 36 | 944.5 |
| 20260504200051 | 26 | 247 | 17.7 | 40.2 | 0.00 | 0.00 | 0.00 | 34 | 944.4 |
| 20260504195550 | 26 | 283 | 22.5 | 40.2 | 0.00 | 0.00 | 0.00 | 36 | 944.4 |
| 20260504195049 | 26 | 240 | 24.1 | 46.7 | 0.00 | 0.00 | 0.00 | 38 | 944.4 |
| 20260504194559 | 26 | 244 | 22.5 | 46.7 | 0.00 | 0.00 | 0.00 | 35 | 944.6 |
| 20260504194047 | 26 | 269 | 20.9 | 37.0 | 0.00 | 0.00 | 0.00 | 37 | 944.4 |
| 20260504193552 | 26 | 272 | 19.3 | 32.2 | 0.00 | 0.00 | 0.00 | 36 | 944.6 |
| 20260504193056 | 26 | 243 | 14.5 | 30.6 | 0.00 | 0.00 | 0.00 | 38 | 944.5 |
| 20260504192545 | 26 | 257 | 16.1 | 32.2 | 0.00 | 0.00 | 0.00 | 36 | 944.5 |
| 20260504192045 | 26 | 274 | 17.7 | 40.2 | 0.00 | 0.00 | 0.00 | 36 | 944.6 |
| 20260504191544 | 26 | 246 | 14.5 | 33.8 | 0.00 | 0.00 | 0.00 | 39 | 944.7 |
| 20260504191043 | 25 | 196 | 16.1 | 30.6 | 0.00 | 0.00 | 0.00 | 37 | 944.7 |
| 20260504190545 | 25 | 271 | 12.9 | 40.2 | 0.00 | 0.00 | 0.00 | 39 | 944.7 |